Regional Weather Roundup
Issued by NWS Albany, NY

Home | Current Version | Previous Version | Text Only | Print | Product List | Glossary On
Versions: 1 2 3 4 5 6 7 8 9 10 11 12 13 14 15 16 17 18 19 20 21 22 23 24 25 26 27 28 29 30 31 32 33 34 35 36 37 38 39 40 41 42 43 44 45 46 47 48 49 50
000
ASUS41 KALY 182010
RWRALY

NEW YORK STATE HOURLY WEATHER ROUNDUP
NATIONAL WEATHER SERVICE ALBANY NY
300 PM EST SAT NOV 18 2017

NOTE: "FAIR" INDICATES FEW OR NO CLOUDS BELOW 12,000 FEET WITH NO
SIGNIFICANT WEATHER AND/OR NO OBSTRUCTIONS TO VISIBILITY.

NYZ032-033-038>043-046>054-057>066-NYZ062>081-082-084-182100-
EAST


CITY           SKY/WX    TMP DP  RH WIND       PRES   REMARKS
ALBANY         CLOUDY    43  26  51 S16G22    29.64F
GLENS FALLS    CLOUDY    34  26  72 SE3       29.64F
POUGHKEEPSIE   CLOUDY    42  35  76 S3        29.68F
MONTGOMERY     CLOUDY    38  35  89 N5        29.66F WCI  34
WHITE PLAINS   LGT RAIN  49  39  68 S8        29.68F
ISLIP          CLOUDY    55  42  61 S13G22    29.70F
NEW YORK CITY  LGT RAIN  52  39  61 S15G23    29.68F
CENTRAL PARK   LGT RAIN  50  39  66 S5        29.71F
$$

NYZ005>009-017-018-044>046-055-056-182100-
CENTRAL


CITY           SKY/WX    TMP DP  RH WIND       PRES   REMARKS
FULTON         CLOUDY    44  33  65 SE6       29.48F
SYRACUSE       CLOUDY    46  36  68 S12       29.49F
ROME           CLOUDY    38  27  64 SE6       29.56F WCI  33
ELMIRA         CLOUDY    45  40  82 S5        29.49F
BINGHAMTON     CLOUDY    38  36  92 S8        29.52F WCI  32
MONTICELLO     MIX PCPN  36  35  96 SE6       29.63F WCI  31
$$

NYZ026>034-041>043-087-182100-
NORTH


CITY           SKY/WX    TMP DP  RH WIND       PRES   REMARKS
WATERTOWN      LGT RAIN  44  31  60 S10       29.47F
FORT DRUM      NOT AVBL
OGDENSBURG     CLOUDY    35  28  77 E5        29.51F WCI  31
MASSENA        CLOUDY    35  26  69 NE8       29.55F WCI  29
SARANAC LAKE   CLOUDY    35  28  75 CALM      29.50S
PLATTSBURGH    CLOUDY    37  21  52 S5        29.56F WCI  33
$$

NYZ001>004-010>016-019>021-085-182100-
WEST


CITY           SKY/WX    TMP DP  RH WIND       PRES   REMARKS
NIAGARA FALLS  CLOUDY    48  44  86 SE7       29.35F
BUFFALO        CLOUDY    49  44  83 S9        29.36F
DUNKIRK        LGT RAIN  48  45  89 S14       29.36F
JAMESTOWN      LGT RAIN  43  43 100 S13       29.37F FOG
WELLSVILLE     LGT RAIN  44  40  85 S12G21    29.44F FOG
ROCHESTER      CLOUDY    50  43  77 S9        29.42F
PENN YAN       CLOUDY    45  36  70 S14G20    29.45F
$$

             KEY
       WCI = WIND CHILL INDEX
       VSB = VISIBILITY
       HX  = HEAT INDEX
$$



USA.gov is the U.S. government's official web portal to all federal, state and local government web resources and services.